,,Stat6,,Stat2,,Stat8,,Stat9,,Stat10,,Wind1,,Wind1,
time,status,PA1M_AVG,status,PR1M_SUM,status,RH1M_AVG,status,SR1M_AVG,status,TA1M_AVG,status,W1dAve1m,status,W1sAve1m,
2008-08-31, 00:00:00,VALID,918.851,VALID,0,VALID,100,VALID,-0.0849042,VALID,18.0311,VALID,104,VALID,0,
2008-08-31, 00:01:00,VALID,918.843,VALID,0,VALID,100,VALID,-0.0849042,VALID,18.0309,VALID,114,VALID,0.00118886,
2008-08-31, 00:02:00,VALID,918.819,VALID,0,VALID,100,VALID,-0.101885,VALID,18.0475,VALID,110,VALID,0,
2008-08-31, 00:03:00,VALID,918.801,VALID,0,VALID,100,VALID,-0.101885,VALID,18.0543,VALID,120,VALID,0,
2008-08-31, 00:04:00,VALID,918.768,VALID,0.2,VALID,100,VALID,-0.0679233,VALID,18.0575,VALID,116,VALID,0,
2008-08-31, 00:05:00,VALID,918.751,VALID,0,VALID,100,VALID,-0.101885,VALID,18.0575,VALID,108,VALID,0,
2008-08-31, 00:06:00,VALID,918.732,VALID,0,VALID,100,VALID,-0.0169808,VALID,18.0601,VALID,118,VALID,0.0272485,
2008-08-31, 00:07:00,VALID,918.707,VALID,0,VALID,100,VALID,-0.0339617,VALID,18.0596,VALID,137,VALID,0,
2008-08-31, 00:08:00,VALID,918.694,VALID,0.2,VALID,100,VALID,-0.0679233,VALID,18.0561,VALID,126,VALID,0,
2008-08-31, 00:09:00,VALID,918.656,VALID,0,VALID,100,VALID,0,VALID,18.0661,VALID,145,VALID,0,
2008-08-31, 00:10:00,VALID,918.625,VALID,0,VALID,100,VALID,-0.0339617,VALID,18.0696,VALID,140,VALID,0,
2008-08-31, 00:11:00,VALID,918.589,VALID,0,VALID,100,VALID,0,VALID,18.0825,VALID,146,VALID,0,
2008-08-31, 00:12:00,VALID,918.567,VALID,0,VALID,100,VALID,-0.0509425,VALID,18.0793,VALID,167,VALID,0,
2008-08-31, 00:13:00,VALID,918.543,VALID,0.2,VALID,100,VALID,-0.0169808,VALID,18.0686,VALID,168,VALID,0,
2008-08-31, 00:14:00,VALID,918.507,VALID,0,VALID,100,VALID,-0.0339617,VALID,18.0855,VALID,168,VALID,0,
2008-08-31, 00:15:00,VALID,918.474,VALID,0,VALID,100,VALID,-0.0339617,VALID,18.0923,VALID,168,VALID,0,
2008-08-31, 00:16:00,VALID,918.45,VALID,0,VALID,100,VALID,0,VALID,18.0923,VALID,168,VALID,0,
2008-08-31, 00:17:00,VALID,918.415,VALID,0,VALID,100,VALID,0,VALID,18.0853,VALID,168,VALID,0,
2008-08-31, 00:18:00,VALID,918.368,VALID,0,VALID,100,VALID,-0.0169808,VALID,18.0923,VALID,168,VALID,0,
2008-08-31, 00:19:00,VALID,918.322,VALID,0,VALID,100,VALID,-0.0339617,VALID,18.0858,VALID,168,VALID,0,
2008-08-31, 00:20:00,VALID,918.287,VALID,0,VALID,100,VALID,-0.0339617,VALID,18.089,VALID,168,VALID,0,
2008-08-31, 00:21:00,VALID,918.26,VALID,0.2,VALID,100,VALID,-0.0169808,VALID,18.0858,VALID,168,VALID,0,
2008-08-31, 00:22:00,VALID,918.23,VALID,0,VALID,100,VALID,-0.0169808,VALID,18.0858,VALID,168,VALID,0,
2008-08-31, 00:23:00,VALID,918.218,VALID,0,VALID,100,VALID,-0.0339617,VALID,18.089,VALID,168,VALID,0,
2008-08-31, 00:24:00,VALID,918.205,VALID,0,VALID,100,VALID,0.0169808,VALID,18.0849,VALID,168,VALID,0,
2008-08-31, 00:25:00,VALID,918.203,VALID,0,VALID,100,VALID,0,VALID,18.0883,VALID,168,VALID,0,
2008-08-31, 00:26:00,VALID,918.203,VALID,0,VALID,100,VALID,-0.0169808,VALID,18.0816,VALID,168,VALID,0,
2008-08-31, 00:27:00,VALID,918.189,VALID,0,VALID,100,VALID,-0.0169808,VALID,18.0728,VALID,153,VALID,0,
2008-08-31, 00:28:00,VALID,918.163,VALID,0,VALID,100,VALID,-0.0169808,VALID,18.0436,VALID,109,VALID,0,
2008-08-31, 00:29:00,VALID,918.165,VALID,0,VALID,100,VALID,-0.0339617,VALID,18.0144,VALID,109,VALID,0,
2008-08-31, 00:30:00,VALID,918.139,VALID,0,VALID,100,VALID,-0.0339617,VALID,17.991,VALID,107,VALID,0,
2008-08-31, 00:31:00,VALID,918.125,VALID,0,VALID,100,VALID,-0.0169808,VALID,17.985,VALID,105,VALID,0,
2008-08-31, 00:32:00,VALID,918.09,VALID,0.2,VALID,100,VALID,-0.0509425,VALID,17.9788,VALID,107,VALID,0,
2008-08-31, 00:33:00,VALID,918.052,VALID,0,VALID,100,VALID,-0.0339617,VALID,17.969,VALID,109,VALID,0,
2008-08-31, 00:34:00,VALID,918.021,VALID,0,VALID,100,VALID,-0.0339617,VALID,17.9556,VALID,110,VALID,0,
2008-08-31, 00:35:00,VALID,917.989,VALID,0,VALID,100,VALID,0,VALID,17.9558,VALID,110,VALID,0,
2008-08-31, 00:36:00,VALID,917.965,VALID,0,VALID,100,VALID,-0.101885,VALID,17.9572,VALID,109,VALID,0.0301599,
2008-08-31, 00:37:00,VALID,917.946,VALID,0,VALID,100,VALID,-0.135847,VALID,17.9477,VALID,108,VALID,0,
2008-08-31, 00:38:00,VALID,917.934,VALID,0,VALID,100,VALID,-0.101885,VALID,17.9408,VALID,108,VALID,0,
2008-08-31, 00:39:00,VALID,917.929,VALID,0,VALID,100,VALID,-0.135847,VALID,17.9345,VALID,108,VALID,0,
2008-08-31, 00:40:00,VALID,917.933,VALID,0,VALID,100,VALID,-0.118866,VALID,17.9282,VALID,108,VALID,0,
2008-08-31, 00:41:00,VALID,917.918,VALID,0,VALID,100,VALID,-0.118866,VALID,17.9278,VALID,108,VALID,0,
2008-08-31, 00:42:00,VALID,917.915,VALID,0,VALID,100,VALID,-0.101885,VALID,17.9245,VALID,114,VALID,0,
2008-08-31, 00:43:00,VALID,917.906,VALID,0,VALID,100,VALID,-0.118866,VALID,17.9213,VALID,117,VALID,0,
2008-08-31, 00:44:00,VALID,917.867,VALID,0,VALID,100,VALID,-0.135847,VALID,17.9148,VALID,122,VALID,0,
2008-08-31, 00:45:00,VALID,917.852,VALID,0,VALID,100,VALID,-0.101885,VALID,17.9245,VALID,134,VALID,0.0319602,
2008-08-31, 00:46:00,VALID,917.82,VALID,0,VALID,100,VALID,-0.118866,VALID,17.9248,VALID,132,VALID,0.00142045,
2008-08-31, 00:47:00,VALID,917.803,VALID,0,VALID,100,VALID,-0.118866,VALID,17.9278,VALID,131,VALID,0.140997,
2008-08-31, 00:48:00,VALID,917.772,VALID,0,VALID,100,VALID,-0.101885,VALID,17.9347,VALID,135,VALID,0.0757068,
2008-08-31, 00:49:00,VALID,917.756,VALID,0,VALID,100,VALID,-0.118866,VALID,17.9442,VALID,146,VALID,0.0100694,
2008-08-31, 00:50:00,VALID,917.75,VALID,0,VALID,100,VALID,-0.118866,VALID,17.9313,VALID,140,VALID,0.018821,
2008-08-31, 00:51:00,VALID,917.736,VALID,0,VALID,100,VALID,-0.0509425,VALID,17.9334,VALID,133,VALID,0,
2008-08-31, 00:52:00,VALID,917.715,VALID,0,VALID,100,VALID,-0.0169808,VALID,17.9227,VALID,136,VALID,0,
2008-08-31, 00:53:00,VALID,917.689,VALID,0,VALID,100,VALID,-0.0339617,VALID,17.9431,VALID,142,VALID,0,
2008-08-31, 00:54:00,VALID,917.675,VALID,0,VALID,100,VALID,-0.0169808,VALID,17.9459,VALID,148,VALID,0.0217226,
2008-08-31, 00:55:00,VALID,917.666,VALID,0,VALID,100,VALID,0,VALID,17.9519,VALID,132,VALID,0.0025436,
2008-08-31, 00:56:00,VALID,917.64,VALID,0,VALID,100,VALID,0.0169808,VALID,17.9556,VALID,124,VALID,0,
2008-08-31, 00:57:00,VALID,917.63,VALID,0,VALID,100,VALID,-0.0339617,VALID,17.9526,VALID,119,VALID,0.0576172,
2008-08-31, 00:58:00,VALID,917.624,VALID,0,VALID,100,VALID,-0.0169808,VALID,17.9558,VALID,110,VALID,0.37779,
2008-08-31, 00:59:00,VALID,917.622,VALID,0,VALID,100,VALID,0,VALID,17.9362,VALID,89,VALID,0.0510671,
2008-08-31, 01:00:00,VALID,917.619,VALID,0,VALID,100,VALID,0,VALID,17.9202,VALID,84,VALID,0.00114329,
2008-08-31, 01:01:00,VALID,917.61,VALID,0,VALID,100,VALID,-0.0509425,VALID,17.8942,VALID,89,VALID,0.0107195,
2008-08-31, 01:02:00,VALID,917.593,VALID,0,VALID,100,VALID,-0.0169808,VALID,17.8778,VALID,93,VALID,0.0246094,
2008-08-31, 01:03:00,VALID,917.585,VALID,0,VALID,100,VALID,-0.0339617,VALID,17.8579,VALID,95,VALID,0.415179,
2008-08-31, 01:04:00,VALID,917.577,VALID,0,VALID,100,VALID,-0.0169808,VALID,17.8713,VALID,90,VALID,0,
2008-08-31, 01:05:00,VALID,917.557,VALID,0,VALID,100,VALID,0,VALID,17.8706,VALID,84,VALID,0,
2008-08-31, 01:06:00,VALID,917.548,VALID,0,VALID,100,VALID,0.0169808,VALID,17.8845,VALID,103,VALID,0,
2008-08-31, 01:07:00,VALID,917.536,VALID,0,VALID,100,VALID,-0.0169808,VALID,17.894,VALID,76,VALID,0,
2008-08-31, 01:08:00,VALID,917.534,VALID,0,VALID,100,VALID,0.0169808,VALID,17.904,VALID,77,VALID,0,
2008-08-31, 01:09:00,VALID,917.53,VALID,0,VALID,100,VALID,0.0509425,VALID,17.884,VALID,81,VALID,0,
2008-08-31, 01:10:00,VALID,917.52,VALID,0,VALID,100,VALID,0,VALID,17.8847,VALID,81,VALID,0,
2008-08-31, 01:11:00,VALID,917.505,VALID,0,VALID,100,VALID,0.0169808,VALID,17.875,VALID,74,VALID,0.117543,
2008-08-31, 01:12:00,VALID,917.487,VALID,0,VALID,100,VALID,0.0339617,VALID,17.8648,VALID,74,VALID,0,
2008-08-31, 01:13:00,VALID,917.475,VALID,0,VALID,100,VALID,0.0169808,VALID,17.8845,VALID,83,VALID,0.246773,
2008-08-31, 01:14:00,VALID,917.442,VALID,0,VALID,100,VALID,0.0169808,VALID,17.891,VALID,86,VALID,0,
2008-08-31, 01:15:00,VALID,917.425,VALID,0,VALID,100,VALID,0.0169808,VALID,17.8938,VALID,92,VALID,0,
2008-08-31, 01:16:00,VALID,917.414,VALID,0,VALID,100,VALID,0,VALID,17.9067,VALID,98,VALID,0,
2008-08-31, 01:17:00,VALID,917.404,VALID,0,VALID,100,VALID,0,VALID,17.9132,VALID,109,VALID,0,
2008-08-31, 01:18:00,VALID,917.391,VALID,0,VALID,100,VALID,0,VALID,17.9199,VALID,110,VALID,0,
2008-08-31, 01:19:00,VALID,917.375,VALID,0,VALID,100,VALID,0.0169808,VALID,17.9102,VALID,110,VALID,0,
2008-08-31, 01:20:00,VALID,917.375,VALID,0,VALID,100,VALID,0.0169808,VALID,17.8903,VALID,110,VALID,0,
2008-08-31, 01:21:00,VALID,917.362,VALID,0,VALID,100,VALID,0.0339617,VALID,17.8778,VALID,110,VALID,0,
2008-08-31, 01:22:00,VALID,917.337,VALID,0,VALID,100,VALID,0,VALID,17.8743,VALID,110,VALID,0,
2008-08-31, 01:23:00,VALID,917.318,VALID,0,VALID,100,VALID,0,VALID,17.8551,VALID,110,VALID,0,
2008-08-31, 01:24:00,VALID,917.307,VALID,0,VALID,100,VALID,0,VALID,17.8486,VALID,110,VALID,0,
2008-08-31, 01:25:00,VALID,917.293,VALID,0,VALID,100,VALID,0.0679233,VALID,17.8644,VALID,110,VALID,0,
2008-08-31, 01:26:00,VALID,917.273,VALID,0,VALID,100,VALID,0.0509425,VALID,17.8808,VALID,110,VALID,0,
2008-08-31, 01:27:00,VALID,917.264,VALID,0,VALID,100,VALID,0.0169808,VALID,17.8871,VALID,110,VALID,0,
2008-08-31, 01:28:00,VALID,917.249,VALID,0,VALID,100,VALID,0.0169808,VALID,17.8905,VALID,112,VALID,0,
2008-08-31, 01:29:00,VALID,917.23,VALID,0,VALID,100,VALID,0.0169808,VALID,17.8975,VALID,117,VALID,0,
2008-08-31, 01:30:00,VALID,917.228,VALID,0,VALID,100,VALID,0.0509425,VALID,17.9137,VALID,124,VALID,0,
2008-08-31, 01:31:00,VALID,917.219,VALID,0,VALID,100,VALID,0,VALID,17.907,VALID,125,VALID,0,
2008-08-31, 01:32:00,VALID,917.213,VALID,0,VALID,100,VALID,0,VALID,17.8938,VALID,122,VALID,0,
2008-08-31, 01:33:00,VALID,917.222,VALID,0,VALID,100,VALID,0.0339617,VALID,17.891,VALID,119,VALID,0,
2008-08-31, 01:34:00,VALID,917.227,VALID,0,VALID,100,VALID,0.0339617,VALID,17.8611,VALID,125,VALID,0,
2008-08-31, 01:35:00,VALID,917.234,VALID,0,VALID,100,VALID,0.0169808,VALID,17.878,VALID,119,VALID,0,
2008-08-31, 01:36:00,VALID,917.222,VALID,0,VALID,100,VALID,0.0169808,VALID,17.8618,VALID,127,VALID,0,
2008-08-31, 01:37:00,VALID,917.209,VALID,0,VALID,100,VALID,0,VALID,17.865,VALID,117,VALID,0,
2008-08-31, 01:38:00,VALID,917.191,VALID,0,VALID,100,VALID,0.0339617,VALID,17.8581,VALID,122,VALID,0.159896,
2008-08-31, 01:39:00,VALID,917.163,VALID,0,VALID,100,VALID,0.0339617,VALID,17.8477,VALID,123,VALID,0,
2008-08-31, 01:40:00,VALID,917.149,VALID,0,VALID,100,VALID,0.0339617,VALID,17.8479,VALID,128,VALID,0,
2008-08-31, 01:41:00,VALID,917.114,VALID,0,VALID,100,VALID,0.0679233,VALID,17.8549,VALID,125,VALID,0,
2008-08-31, 01:42:00,VALID,917.086,VALID,0,VALID,100,VALID,0.0169808,VALID,17.8387,VALID,127,VALID,0,
2008-08-31, 01:43:00,VALID,917.085,VALID,0,VALID,100,VALID,0.0509425,VALID,17.8514,VALID,139,VALID,0.0867188,
2008-08-31, 01:44:00,VALID,917.079,VALID,0,VALID,100,VALID,0.0509425,VALID,17.8616,VALID,138,VALID,0.0463299,
2008-08-31, 01:45:00,VALID,917.073,VALID,0,VALID,100,VALID,0,VALID,17.8678,VALID,135,VALID,0.00868056,
2008-08-31, 01:46:00,VALID,917.063,VALID,0,VALID,100,VALID,0,VALID,17.8579,VALID,143,VALID,0,
2008-08-31, 01:47:00,VALID,917.058,VALID,0,VALID,100,VALID,0.0169808,VALID,17.8713,VALID,130,VALID,0.186756,
2008-08-31, 01:48:00,VALID,917.043,VALID,0,VALID,100,VALID,0.0339617,VALID,17.8646,VALID,125,VALID,0,
2008-08-31, 01:49:00,VALID,917.007,VALID,0,VALID,100,VALID,0.0339617,VALID,17.865,VALID,139,VALID,0,
2008-08-31, 01:50:00,VALID,917.004,VALID,0,VALID,100,VALID,0.0169808,VALID,17.8613,VALID,136,VALID,0,
2008-08-31, 01:51:00,VALID,916.973,VALID,0,VALID,100,VALID,-0.0509425,VALID,17.8625,VALID,133,VALID,0.512962,
2008-08-31, 01:52:00,VALID,916.958,VALID,0,VALID,100,VALID,-0.101885,VALID,17.8567,VALID,139,VALID,0,
2008-08-31, 01:53:00,VALID,916.939,VALID,0,VALID,100,VALID,-0.0679233,VALID,17.8724,VALID,144,VALID,0,
2008-08-31, 01:54:00,VALID,916.917,VALID,0,VALID,100,VALID,-0.0849042,VALID,17.8692,VALID,135,VALID,0,
2008-08-31, 01:55:00,VALID,916.899,VALID,0,VALID,100,VALID,-0.0849042,VALID,17.8692,VALID,137,VALID,0,
2008-08-31, 01:56:00,VALID,916.868,VALID,0,VALID,100,VALID,-0.101885,VALID,17.8764,VALID,137,VALID,0,
2008-08-31, 01:57:00,VALID,916.848,VALID,0,VALID,100,VALID,-0.0679233,VALID,17.8595,VALID,136,VALID,0,
2008-08-31, 01:58:00,VALID,916.818,VALID,0,VALID,100,VALID,-0.101885,VALID,17.8564,VALID,141,VALID,0,
2008-08-31, 01:59:00,VALID,916.803,VALID,0,VALID,100,VALID,-0.0849042,VALID,17.8599,VALID,146,VALID,0,
2008-08-31, 02:00:00,VALID,916.781,VALID,0,VALID,100,VALID,-0.101885,VALID,17.8664,VALID,129,VALID,0.0129616,
2008-08-31, 02:01:00,VALID,916.776,VALID,0,VALID,100,VALID,-0.101885,VALID,17.8627,VALID,138,VALID,0.0472561,
2008-08-31, 02:02:00,VALID,916.76,VALID,0,VALID,100,VALID,-0.0679233,VALID,17.8629,VALID,133,VALID,0,
2008-08-31, 02:03:00,VALID,916.766,VALID,0,VALID,100,VALID,-0.101885,VALID,17.8528,VALID,139,VALID,0,
2008-08-31, 02:04:00,VALID,916.759,VALID,0,VALID,100,VALID,-0.0679233,VALID,17.8398,VALID,124,VALID,0,
2008-08-31, 02:05:00,VALID,916.767,VALID,0,VALID,100,VALID,-0.0509425,VALID,17.8402,VALID,130,VALID,0,
2008-08-31, 02:06:00,VALID,916.763,VALID,0,VALID,100,VALID,-0.0509425,VALID,17.8337,VALID,140,VALID,0,
2008-08-31, 02:07:00,VALID,916.742,VALID,0,VALID,100,VALID,-0.0509425,VALID,17.837,VALID,147,VALID,0,
2008-08-31, 02:08:00,VALID,916.74,VALID,0,VALID,100,VALID,-0.0509425,VALID,17.8266,VALID,151,VALID,0,
2008-08-31, 02:09:00,VALID,916.738,VALID,0,VALID,100,VALID,-0.0679233,VALID,17.8208,VALID,157,VALID,0.709162,
2008-08-31, 02:10:00,VALID,916.73,VALID,0,VALID,100,VALID,-0.0849042,VALID,17.824,VALID,153,VALID,1.08229,
2008-08-31, 02:11:00,VALID,916.726,VALID,0,VALID,100,VALID,-0.101885,VALID,17.8076,VALID,146,VALID,0.704901,
2008-08-31, 02:12:00,VALID,916.717,VALID,0,VALID,100,VALID,-0.0509425,VALID,17.8076,VALID,146,VALID,0.953465,
2008-08-31, 02:13:00,VALID,916.716,VALID,0,VALID,100,VALID,-0.101885,VALID,17.8113,VALID,137,VALID,0.119792,
2008-08-31, 02:14:00,VALID,916.714,VALID,0,VALID,100,VALID,-0.101885,VALID,17.8009,VALID,130,VALID,0.570685,
2008-08-31, 02:15:00,VALID,916.721,VALID,0,VALID,100,VALID,-0.0679233,VALID,17.7976,VALID,138,VALID,0.937128,
2008-08-31, 02:16:00,VALID,916.704,VALID,0,VALID,100,VALID,-0.0509425,VALID,17.7911,VALID,139,VALID,0.686047,
2008-08-31, 02:17:00,VALID,916.709,VALID,0,VALID,100,VALID,-0.0849042,VALID,17.8076,VALID,143,VALID,1.07617,
2008-08-31, 02:18:00,VALID,916.714,VALID,0,VALID,100,VALID,-0.0849042,VALID,17.8074,VALID,133,VALID,0.427912,
2008-08-31, 02:19:00,VALID,916.709,VALID,0,VALID,100,VALID,-0.0509425,VALID,17.8108,VALID,138,VALID,0.804688,
2008-08-31, 02:20:00,VALID,916.726,VALID,0,VALID,100,VALID,-0.0679233,VALID,17.8041,VALID,120,VALID,0.838816,
2008-08-31, 02:21:00,VALID,916.728,VALID,0,VALID,100,VALID,-0.0849042,VALID,17.7944,VALID,128,VALID,1.20751,
2008-08-31, 02:22:00,VALID,916.717,VALID,0,VALID,100,VALID,-0.0849042,VALID,17.7983,VALID,118,VALID,0.870276,
2008-08-31, 02:23:00,VALID,916.714,VALID,0,VALID,100,VALID,-0.0679233,VALID,17.7881,VALID,116,VALID,0.43423,
2008-08-31, 02:24:00,VALID,916.713,VALID,0,VALID,100,VALID,-0.0849042,VALID,17.7816,VALID,102,VALID,0.00533537,
2008-08-31, 02:25:00,VALID,916.701,VALID,0,VALID,100,VALID,-0.101885,VALID,17.7814,VALID,88,VALID,0,
2008-08-31, 02:26:00,VALID,916.693,VALID,0,VALID,100,VALID,-0.0849042,VALID,17.7747,VALID,111,VALID,0.0110518,
2008-08-31, 02:27:00,VALID,916.695,VALID,0,VALID,100,VALID,-0.0509425,VALID,17.7682,VALID,121,VALID,0.167597,
2008-08-31, 02:28:00,VALID,916.696,VALID,0,VALID,100,VALID,-0.0339617,VALID,17.7552,VALID,133,VALID,0.00985863,
2008-08-31, 02:29:00,VALID,916.7,VALID,0,VALID,100,VALID,-0.0679233,VALID,17.7453,VALID,125,VALID,0,
2008-08-31, 02:30:00,VALID,916.694,VALID,0,VALID,100,VALID,-0.0509425,VALID,17.7527,VALID,132,VALID,0,
2008-08-31, 02:31:00,VALID,916.705,VALID,0,VALID,100,VALID,-0.0849042,VALID,17.7561,VALID,129,VALID,0,
2008-08-31, 02:32:00,VALID,916.711,VALID,0,VALID,100,VALID,-0.0849042,VALID,17.739,VALID,137,VALID,0,
2008-08-31, 02:33:00,VALID,916.728,VALID,0,VALID,100,VALID,-0.0849042,VALID,17.7393,VALID,134,VALID,0,
2008-08-31, 02:34:00,VALID,916.729,VALID,0,VALID,100,VALID,-0.0679233,VALID,17.7425,VALID,124,VALID,0,
2008-08-31, 02:35:00,VALID,916.741,VALID,0,VALID,100,VALID,-0.0679233,VALID,17.7263,VALID,132,VALID,0.113917,
2008-08-31, 02:36:00,VALID,916.756,VALID,0,VALID,100,VALID,-0.101885,VALID,17.7462,VALID,118,VALID,0.00266768,
2008-08-31, 02:37:00,VALID,916.758,VALID,0,VALID,100,VALID,-0.101885,VALID,17.7295,VALID,114,VALID,0,
2008-08-31, 02:38:00,VALID,916.767,VALID,0,VALID,100,VALID,-0.101885,VALID,17.7298,VALID,114,VALID,0,
2008-08-31, 02:39:00,VALID,916.761,VALID,0,VALID,100,VALID,-0.0679233,VALID,17.7226,VALID,126,VALID,0.0740412,
2008-08-31, 02:40:00,VALID,916.744,VALID,0,VALID,100,VALID,-0.0849042,VALID,17.743,VALID,132,VALID,0.0541295,
2008-08-31, 02:41:00,VALID,916.741,VALID,0,VALID,100,VALID,-0.101885,VALID,17.7462,VALID,142,VALID,0,
2008-08-31, 02:42:00,VALID,916.743,VALID,0,VALID,100,VALID,-0.0849042,VALID,17.7295,VALID,143,VALID,0.00887784,
2008-08-31, 02:43:00,VALID,916.721,VALID,0,VALID,100,VALID,-0.0509425,VALID,17.736,VALID,139,VALID,0.00711806,
2008-08-31, 02:44:00,VALID,916.712,VALID,0,VALID,100,VALID,-0.0679233,VALID,17.7332,VALID,135,VALID,0.000887784,
2008-08-31, 02:45:00,VALID,916.699,VALID,0,VALID,100,VALID,-0.101885,VALID,17.7163,VALID,138,VALID,0.00600962,
2008-08-31, 02:46:00,VALID,916.696,VALID,0,VALID,100,VALID,-0.0679233,VALID,17.7099,VALID,140,VALID,0.369048,
2008-08-31, 02:47:00,VALID,916.698,VALID,0,VALID,100,VALID,-0.0339617,VALID,17.7263,VALID,147,VALID,0.251758,
2008-08-31, 02:48:00,VALID,916.686,VALID,0,VALID,100,VALID,-0.0679233,VALID,17.736,VALID,143,VALID,1.41637,
2008-08-31, 02:49:00,VALID,916.697,VALID,0,VALID,100,VALID,-0.0509425,VALID,17.7291,VALID,147,VALID,1.52344,
2008-08-31, 02:50:00,VALID,916.697,VALID,0,VALID,100,VALID,-0.0509425,VALID,17.7356,VALID,168,VALID,1.37664,
2008-08-31, 02:51:00,VALID,916.71,VALID,0,VALID,100,VALID,-0.0339617,VALID,17.7488,VALID,171,VALID,1.12135,
2008-08-31, 02:52:00,VALID,916.725,VALID,0,VALID,100,VALID,-0.0509425,VALID,17.755,VALID,163,VALID,1.10102,
2008-08-31, 02:53:00,VALID,916.729,VALID,0,VALID,100,VALID,-0.0679233,VALID,17.7684,VALID,161,VALID,1.02363,
2008-08-31, 02:54:00,VALID,916.733,VALID,0,VALID,100,VALID,-0.0679233,VALID,17.7712,VALID,155,VALID,1.11623,
2008-08-31, 02:55:00,VALID,916.728,VALID,0,VALID,100,VALID,-0.0509425,VALID,17.7812,VALID,147,VALID,0.941051,
2008-08-31, 02:56:00,VALID,916.721,VALID,0,VALID,100,VALID,-0.0679233,VALID,17.7816,VALID,164,VALID,0.383539,
2008-08-31, 02:57:00,VALID,916.718,VALID,0,VALID,100,VALID,-0.0849042,VALID,17.7782,VALID,141,VALID,0.71766,
2008-08-31, 02:58:00,VALID,916.698,VALID,0,VALID,100,VALID,-0.0509425,VALID,17.7782,VALID,146,VALID,0.942116,
2008-08-31, 02:59:00,VALID,916.685,VALID,0,VALID,100,VALID,-0.0339617,VALID,17.7784,VALID,144,VALID,0.885719,
2008-08-31, 03:00:00,VALID,916.675,VALID,0,VALID,100,VALID,-0.0679233,VALID,17.7777,VALID,145,VALID,1.18484,
2008-08-31, 03:01:00,VALID,916.663,VALID,0,VALID,100,VALID,-0.0849042,VALID,17.7749,VALID,143,VALID,1.10828,
2008-08-31, 03:02:00,VALID,916.652,VALID,0,VALID,100,VALID,-0.0509425,VALID,17.768,VALID,144,VALID,0.949929,
2008-08-31, 03:03:00,VALID,916.647,VALID,0,VALID,100,VALID,-0.0509425,VALID,17.7782,VALID,140,VALID,0.835211,
2008-08-31, 03:04:00,VALID,916.638,VALID,0,VALID,100,VALID,-0.0849042,VALID,17.7784,VALID,134,VALID,1.13154,
2008-08-31, 03:05:00,VALID,916.622,VALID,0,VALID,100,VALID,-0.0339617,VALID,17.7747,VALID,142,VALID,1.28668,
2008-08-31, 03:06:00,VALID,916.61,VALID,0,VALID,100,VALID,-0.0849042,VALID,17.7721,VALID,140,VALID,1.13247,
2008-08-31, 03:07:00,VALID,916.601,VALID,0,VALID,100,VALID,-0.101885,VALID,17.7555,VALID,139,VALID,1.16879,
2008-08-31, 03:08:00,VALID,916.593,VALID,0,VALID,100,VALID,-0.101885,VALID,17.7656,VALID,135,VALID,0.170058,
2008-08-31, 03:09:00,VALID,916.569,VALID,0,VALID,100,VALID,-0.0679233,VALID,17.7557,VALID,139,VALID,0.0616319,
2008-08-31, 03:10:00,VALID,916.544,VALID,0,VALID,100,VALID,-0.0849042,VALID,17.7393,VALID,134,VALID,0.173958,
2008-08-31, 03:11:00,VALID,916.538,VALID,0,VALID,100,VALID,-0.101885,VALID,17.7427,VALID,137,VALID,0.0148983,
2008-08-31, 03:12:00,VALID,916.502,VALID,0,VALID,100,VALID,-0.0849042,VALID,17.7358,VALID,115,VALID,0,
2008-08-31, 03:13:00,VALID,916.48,VALID,0,VALID,100,VALID,-0.0679233,VALID,17.7228,VALID,133,VALID,0,
2008-08-31, 03:14:00,VALID,916.471,VALID,0,VALID,100,VALID,-0.101885,VALID,17.7135,VALID,128,VALID,0,
2008-08-31, 03:15:00,VALID,916.459,VALID,0,VALID,100,VALID,-0.101885,VALID,17.7108,VALID,122,VALID,0,
2008-08-31, 03:16:00,VALID,916.449,VALID,0,VALID,100,VALID,-0.101885,VALID,17.6945,VALID,126,VALID,0,
2008-08-31, 03:17:00,VALID,916.453,VALID,0,VALID,100,VALID,-0.118866,VALID,17.6906,VALID,123,VALID,0,
2008-08-31, 03:18:00,VALID,916.441,VALID,0,VALID,100,VALID,-0.118866,VALID,17.6779,VALID,114,VALID,0,
2008-08-31, 03:19:00,VALID,916.444,VALID,0,VALID,100,VALID,-0.118866,VALID,17.6749,VALID,114,VALID,0,
2008-08-31, 03:20:00,VALID,916.445,VALID,0,VALID,100,VALID,-0.101885,VALID,17.6872,VALID,128,VALID,0.800781,
2008-08-31, 03:21:00,VALID,916.433,VALID,0,VALID,100,VALID,-0.0849042,VALID,17.7198,VALID,129,VALID,1.37972,
2008-08-31, 03:22:00,VALID,916.433,VALID,0,VALID,100,VALID,-0.0849042,VALID,17.7228,VALID,121,VALID,1.11961,
2008-08-31, 03:23:00,VALID,916.443,VALID,0,VALID,100,VALID,-0.0849042,VALID,17.7362,VALID,135,VALID,1.24392,
2008-08-31, 03:24:00,VALID,916.425,VALID,0,VALID,100,VALID,-0.0849042,VALID,17.7525,VALID,137,VALID,1.34908,
2008-08-31, 03:25:00,VALID,916.411,VALID,0,VALID,100,VALID,-0.118866,VALID,17.7555,VALID,136,VALID,1.15199,
2008-08-31, 03:26:00,VALID,916.402,VALID,0,VALID,100,VALID,-0.101885,VALID,17.7689,VALID,137,VALID,0.962754,
2008-08-31, 03:27:00,VALID,916.4,VALID,0,VALID,100,VALID,-0.101885,VALID,17.7557,VALID,140,VALID,1.25409,
2008-08-31, 03:28:00,VALID,916.39,VALID,0,VALID,100,VALID,-0.101885,VALID,17.7564,VALID,144,VALID,0.566497,
2008-08-31, 03:29:00,VALID,916.378,VALID,0,VALID,100,VALID,-0.118866,VALID,17.7693,VALID,138,VALID,1.26522,
2008-08-31, 03:30:00,VALID,916.374,VALID,0,VALID,100,VALID,-0.101885,VALID,17.7691,VALID,130,VALID,0.713605,
2008-08-31, 03:31:00,VALID,916.358,VALID,0,VALID,100,VALID,-0.101885,VALID,17.7691,VALID,141,VALID,0.929514,
2008-08-31, 03:32:00,VALID,916.341,VALID,0,VALID,100,VALID,-0.101885,VALID,17.7624,VALID,138,VALID,0.957126,
2008-08-31, 03:33:00,VALID,916.323,VALID,0,VALID,100,VALID,-0.101885,VALID,17.7624,VALID,141,VALID,1.26079,
2008-08-31, 03:34:00,VALID,916.318,VALID,0,VALID,100,VALID,-0.101885,VALID,17.7656,VALID,144,VALID,1.28051,
2008-08-31, 03:35:00,VALID,916.301,VALID,0,VALID,100,VALID,-0.0849042,VALID,17.7656,VALID,144,VALID,1.48783,
2008-08-31, 03:36:00,VALID,916.285,VALID,0,VALID,100,VALID,-0.0679233,VALID,17.7814,VALID,146,VALID,1.27548,
2008-08-31, 03:37:00,VALID,916.292,VALID,0,VALID,100,VALID,0,VALID,17.7675,VALID,147,VALID,1.00746,
2008-08-31, 03:38:00,VALID,916.293,VALID,0,VALID,100,VALID,0.0169808,VALID,17.7675,VALID,137,VALID,0.529204,
2008-08-31, 03:39:00,VALID,916.297,VALID,0,VALID,100,VALID,0,VALID,17.7576,VALID,142,VALID,1.06882,
2008-08-31, 03:40:00,VALID,916.287,VALID,0,VALID,100,VALID,0.0169808,VALID,17.758,VALID,134,VALID,0.787997,
2008-08-31, 03:41:00,VALID,916.277,VALID,0,VALID,100,VALID,0.0339617,VALID,17.7548,VALID,139,VALID,0.778582,
2008-08-31, 03:42:00,VALID,916.272,VALID,0,VALID,100,VALID,0,VALID,17.7481,VALID,142,VALID,1.05171,
2008-08-31, 03:43:00,VALID,916.241,VALID,0,VALID,100,VALID,0,VALID,17.7347,VALID,148,VALID,1.13411,
2008-08-31, 03:44:00,VALID,916.227,VALID,0,VALID,100,VALID,0.0339617,VALID,17.7416,VALID,151,VALID,0.909028,